| time (UTC) | temp C | wind direction | speed KPH | gust KPH | rain 1hr cm | rain 24hr cm | rain mn cm | humidity % | barometer mb |
| 20260901004617 | 30 | 0 | 0.0 | 11.3 | 0.00 | 0.00 | 0.00 | 28 | 1008.1 |
| 20260901003055 | 30 | 128 | 1.6 | 6.4 | 0.00 | 0.00 | 0.00 | 28 | 1008.1 |
| 20260901001555 | 30 | 142 | 1.6 | 6.4 | 0.00 | 0.00 | 0.00 | 28 | 1008.1 |
| 20260831234557 | 30 | 55 | 3.2 | 8.0 | 0.00 | 0.00 | 0.00 | 28 | 1008.2 |
| 20260831233052 | 30 | 105 | 1.6 | 9.7 | 0.00 | 0.00 | 0.00 | 26 | 1008.3 |
| 20260831231556 | 30 | 88 | 1.6 | 6.4 | 0.00 | 0.00 | 0.00 | 28 | 1008.5 |
| 20260831230058 | 30 | 199 | 1.6 | 9.7 | 0.00 | 0.00 | 0.00 | 28 | 1008.7 |
| 20260831224550 | 29 | 82 | 3.2 | 6.4 | 0.00 | 0.00 | 0.00 | 29 | 1008.7 |
| 20260831223105 | 29 | 201 | 3.2 | 11.3 | 0.00 | 0.00 | 0.00 | 28 | 1008.8 |
| 20260831221557 | 28 | 100 | 4.8 | 12.9 | 0.00 | 0.00 | 0.00 | 30 | 1009.1 |
| 20260831220057 | 28 | 0 | 3.2 | 12.9 | 0.00 | 0.00 | 0.00 | 30 | 1009.3 |
| 20260831214550 | 28 | 90 | 3.2 | 11.3 | 0.00 | 0.00 | 0.00 | 30 | 1009.4 |
| 20260831213057 | 27 | 65 | 1.6 | 9.7 | 0.00 | 0.00 | 0.00 | 32 | 1009.5 |
| 20260831211555 | 27 | 79 | 6.4 | 16.1 | 0.00 | 0.00 | 0.00 | 35 | 1009.6 |
| 20260831204549 | 27 | 119 | 6.4 | 11.3 | 0.00 | 0.00 | 0.00 | 33 | 1010.0 |
| 20260831203059 | 27 | 88 | 3.2 | 12.9 | 0.00 | 0.00 | 0.00 | 36 | 1010.2 |
| 20260831201552 | 26 | 161 | 1.6 | 14.5 | 0.00 | 0.00 | 0.00 | 36 | 1010.4 |
| 20260831200056 | 26 | 142 | 6.4 | 12.9 | 0.00 | 0.00 | 0.00 | 37 | 1010.7 |
| 20260831194635 | 26 | 92 | 3.2 | 11.3 | 0.00 | 0.00 | 0.00 | 37 | 1010.7 |
| 20260831193057 | 26 | 284 | 3.2 | 9.7 | 0.00 | 0.00 | 0.00 | 39 | 1010.8 |
| 20260831191553 | 25 | 122 | 4.8 | 9.7 | 0.00 | 0.00 | 0.00 | 39 | 1011.0 |
| 20260831190110 | 25 | 0 | 1.6 | 8.0 | 0.00 | 0.00 | 0.00 | 43 | 1011.2 |
| 20260831184602 | 25 | 86 | 4.8 | 12.9 | 0.00 | 0.00 | 0.00 | 43 | 1011.5 |
| 20260831183052 | 23 | 234 | 3.2 | 9.7 | 0.00 | 0.00 | 0.00 | 46 | 1011.3 |
| 20260831181554 | 23 | 0 | 3.2 | 11.3 | 0.00 | 0.00 | 0.00 | 49 | 1011.7 |
| 20260831174634 | 22 | 30 | 4.8 | 12.9 | 0.00 | 0.00 | 0.00 | 54 | 1011.8 |
| 20260831173105 | 21 | 285 | 3.2 | 14.5 | 0.00 | 0.00 | 0.00 | 57 | 1012.0 |
| 20260831171559 | 21 | 267 | 3.2 | 9.7 | 0.00 | 0.00 | 0.00 | 57 | 1011.9 |
| 20260831170059 | 20 | 11 | 4.8 | 14.5 | 0.00 | 0.00 | 0.00 | 59 | 1011.9 |
| 20260831164557 | 19 | 313 | 4.8 | 17.7 | 0.00 | 0.00 | 0.00 | 61 | 1012.1 |
| 20260831163107 | 18 | 292 | 6.4 | 22.5 | 0.00 | 0.00 | 0.00 | 62 | 1012.2 |
| 20260831161603 | 18 | 325 | 4.8 | 16.1 | 0.00 | 0.00 | 0.00 | 64 | 1012.4 |
| 20260831160055 | 18 | 5 | 3.2 | 12.9 | 0.00 | 0.00 | 0.00 | 65 | 1012.5 |
| 20260831154624 | 17 | 319 | 3.2 | 14.5 | 0.00 | 0.00 | 0.00 | 65 | 1012.5 |
| 20260831153118 | 17 | 290 | 3.2 | 9.7 | 0.00 | 0.00 | 0.00 | 68 | 1012.5 |
| 20260831151554 | 16 | 343 | 3.2 | 12.9 | 0.00 | 0.00 | 0.00 | 70 | 1012.7 |
| 20260831150059 | 15 | 308 | 0.0 | 6.4 | 0.00 | 0.00 | 0.00 | 71 | 1012.6 |
| 20260831144600 | 15 | 295 | 1.6 | 9.7 | 0.00 | 0.00 | 0.00 | 75 | 1012.8 |
| 20260831143055 | 13 | 262 | 3.2 | 8.0 | 0.00 | 0.00 | 0.00 | 77 | 1012.8 |
| 20260831141555 | 12 | 0 | 0.0 | 6.4 | 0.00 | 0.00 | 0.00 | 81 | 1012.7 |
| 20260831140051 | 12 | 279 | 1.6 | 4.8 | 0.00 | 0.00 | 0.00 | 82 | 1012.6 |
| 20260831134608 | 11 | 252 | 1.6 | 4.8 | 0.00 | 0.00 | 0.00 | 84 | 1012.7 |
| 20260831133102 | 10 | 254 | 3.2 | 6.4 | 0.00 | 0.00 | 0.00 | 87 | 1012.7 |
| 20260831131558 | 11 | 193 | 1.6 | 4.8 | 0.00 | 0.00 | 0.00 | 85 | 1012.8 |
| 20260831130109 | 10 | 204 | 1.6 | 4.8 | 0.00 | 0.00 | 0.00 | 86 | 1012.8 |
| 20260831124552 | 11 | 212 | 1.6 | 4.8 | 0.00 | 0.00 | 0.00 | 85 | 1013.0 |
| 20260831123103 | 11 | 169 | 0.0 | 3.2 | 0.00 | 0.00 | 0.00 | 84 | 1013.2 |
| 20260831121608 | 12 | 0 | 0.0 | 3.2 | 0.00 | 0.00 | 0.00 | 81 | 1013.3 |
| 20260831120104 | 12 | 19 | 0.0 | 4.8 | 0.00 | 0.00 | 0.00 | 80 | 1013.4 |
| 20260831114604 | 12 | 231 | 1.6 | 4.8 | 0.00 | 0.00 | 0.00 | 80 | 1013.6 |
| 20260831113108 | 13 | 0 | 0.0 | 3.2 | 0.00 | 0.00 | 0.00 | 76 | 1013.6 |
| 20260831111550 | 14 | 0 | 0.0 | 6.4 | 0.00 | 0.00 | 0.00 | 75 | 1013.7 |
| 20260831110053 | 14 | 0 | 0.0 | 6.4 | 0.00 | 0.00 | 0.00 | 74 | 1013.6 |
| 20260831104600 | 14 | 281 | 1.6 | 4.8 | 0.00 | 0.00 | 0.00 | 75 | 1013.6 |
| 20260831103052 | 14 | 288 | 1.6 | 4.8 | 0.00 | 0.00 | 0.00 | 73 | 1013.8 |
| 20260831101603 | 15 | 284 | 0.0 | 4.8 | 0.00 | 0.00 | 0.00 | 73 | 1013.9 |
| 20260831100057 | 15 | 5 | 0.0 | 6.4 | 0.00 | 0.00 | 0.00 | 72 | 1014.2 |
| 20260831094603 | 15 | 300 | 3.2 | 6.4 | 0.00 | 0.00 | 0.00 | 72 | 1014.3 |
| 20260831093139 | 15 | 279 | 1.6 | 4.8 | 0.00 | 0.00 | 0.00 | 71 | 1014.4 |
| 20260831091552 | 15 | 0 | 0.0 | 6.4 | 0.00 | 0.00 | 0.00 | 70 | 1014.4 |
| 20260831090055 | 15 | 270 | 3.2 | 12.9 | 0.00 | 0.00 | 0.00 | 71 | 1014.6 |
| 20260831084630 | 16 | 311 | 1.6 | 9.7 | 0.00 | 0.00 | 0.00 | 71 | 1014.8 |
| 20260831083106 | 16 | 292 | 1.6 | 12.9 | 0.00 | 0.00 | 0.00 | 71 | 1014.9 |
| 20260831081549 | 16 | 288 | 3.2 | 6.4 | 0.00 | 0.00 | 0.00 | 72 | 1014.9 |
| 20260831080123 | 16 | 315 | 1.6 | 6.4 | 0.00 | 0.00 | 0.00 | 72 | 1015.2 |
| 20260831074551 | 16 | 290 | 4.8 | 11.3 | 0.00 | 0.00 | 0.00 | 72 | 1015.3 |
| 20260831073100 | 16 | 298 | 3.2 | 9.7 | 0.00 | 0.00 | 0.00 | 72 | 1015.3 |
| 20260831071601 | 15 | 286 | 1.6 | 6.4 | 0.00 | 0.00 | 0.00 | 73 | 1015.4 |
| 20260831070054 | 15 | 285 | 3.2 | 9.7 | 0.00 | 0.00 | 0.00 | 74 | 1015.5 |
| 20260831064601 | 15 | 305 | 1.6 | 8.0 | 0.00 | 0.00 | 0.00 | 74 | 1015.8 |
| 20260831063108 | 15 | 264 | 1.6 | 6.4 | 0.00 | 0.00 | 0.00 | 74 | 1015.9 |
| 20260831061553 | 15 | 283 | 3.2 | 11.3 | 0.00 | 0.00 | 0.00 | 73 | 1016.2 |
| 20260831060056 | 15 | 304 | 1.6 | 9.7 | 0.00 | 0.00 | 0.00 | 73 | 1016.3 |
| 20260831054555 | 15 | 22 | 0.0 | 4.8 | 0.00 | 0.00 | 0.00 | 73 | 1016.4 |
| 20260831053100 | 16 | 360 | 0.0 | 6.4 | 0.00 | 0.00 | 0.00 | 72 | 1016.6 |
| 20260831051559 | 16 | 0 | 1.6 | 4.8 | 0.00 | 0.00 | 0.00 | 72 | 1016.9 |
| 20260831050108 | 16 | 0 | 0.0 | 6.4 | 0.00 | 0.00 | 0.00 | 72 | 1017.0 |
| 20260831044549 | 16 | 325 | 1.6 | 4.8 | 0.00 | 0.00 | 0.00 | 71 | 1017.1 |
| 20260831043052 | 16 | 0 | 0.0 | 9.7 | 0.00 | 0.00 | 0.00 | 71 | 1017.2 |
| 20260831041556 | 16 | 0 | 1.6 | 6.4 | 0.00 | 0.00 | 0.00 | 69 | 1017.3 |
| 20260831040055 | 16 | 292 | 1.6 | 6.4 | 0.00 | 0.00 | 0.00 | 69 | 1017.2 |
| 20260831034559 | 17 | 310 | 3.2 | 11.3 | 0.00 | 0.00 | 0.00 | 68 | 1017.2 |
| 20260831033101 | 17 | 282 | 1.6 | 6.4 | 0.00 | 0.00 | 0.00 | 67 | 1017.1 |
| 20260831031555 | 17 | 274 | 1.6 | 6.4 | 0.00 | 0.00 | 0.00 | 66 | 1017.2 |
| 20260831030054 | 18 | 329 | 4.8 | 16.1 | 0.00 | 0.00 | 0.00 | 65 | 1017.3 |
| 20260831024602 | 18 | 341 | 4.8 | 16.1 | 0.00 | 0.00 | 0.00 | 63 | 1017.4 |
| 20260831023054 | 19 | 17 | 3.2 | 14.5 | 0.00 | 0.00 | 0.00 | 62 | 1017.5 |
| 20260831021554 | 20 | 11 | 8.0 | 19.3 | 0.00 | 0.00 | 0.00 | 59 | 1017.3 |
| 20260831014556 | 21 | 352 | 8.0 | 17.7 | 0.00 | 0.00 | 0.00 | 56 | 1017.6 |
| 20260831013102 | 21 | 84 | 4.8 | 22.5 | 0.00 | 0.00 | 0.00 | 57 | 1017.8 |
| 20260831011604 | 21 | 80 | 8.0 | 17.7 | 0.00 | 0.00 | 0.00 | 54 | 1017.8 |
| 20260831010106 | 22 | 360 | 9.7 | 24.1 | 0.00 | 0.00 | 0.00 | 53 | 1017.9 |